| time (UTC) | temp F | wind direction | speed MPH | gust MPH | rain 1hr in | rain 24hr in | rain mn in | humidity % | barometer mb |
| 20260504020025 | 60 | 183 | 2.0 | 4.0 | 0.00 | 0.00 | 0.00 | 56 | 1008.6 |
| 20260504014528 | 61 | 182 | 1.0 | 3.0 | 0.00 | 0.00 | 0.00 | 54 | 1008.4 |
| 20260504013025 | 62 | 199 | 1.0 | 2.0 | 0.00 | 0.00 | 0.00 | 51 | 1008.4 |
| 20260504011523 | 63 | 213 | 1.0 | 2.0 | 0.00 | 0.00 | 0.00 | 49 | 1008.2 |
| 20260504010023 | 64 | 209 | 1.0 | 5.0 | 0.00 | 0.00 | 0.00 | 49 | 1008.3 |
| 20260504004524 | 65 | 228 | 3.0 | 6.0 | 0.00 | 0.00 | 0.00 | 46 | 1008.2 |
| 20260504003022 | 66 | 267 | 3.0 | 7.0 | 0.00 | 0.00 | 0.00 | 45 | 1008.1 |
| 20260504001521 | 67 | 227 | 4.0 | 12.0 | 0.00 | 0.00 | 0.00 | 44 | 1008.2 |
| 20260504000020 | 67 | 243 | 6.0 | 11.0 | 0.00 | 0.00 | 0.00 | 43 | 1008.2 |
| 20260503234519 | 67 | 245 | 9.0 | 14.0 | 0.00 | 0.00 | 0.00 | 42 | 1008.3 |
| 20260503233023 | 68 | 261 | 10.0 | 21.0 | 0.00 | 0.00 | 0.00 | 41 | 1008.3 |
| 20260503231516 | 68 | 229 | 14.0 | 19.0 | 0.00 | 0.00 | 0.00 | 40 | 1008.4 |
| 20260503230015 | 68 | 226 | 10.0 | 16.0 | 0.00 | 0.00 | 0.00 | 41 | 1008.5 |
| 20260503224514 | 68 | 249 | 9.0 | 18.0 | 0.00 | 0.00 | 0.00 | 41 | 1008.8 |
| 20260503223012 | 68 | 263 | 11.0 | 21.0 | 0.00 | 0.00 | 0.00 | 41 | 1008.7 |
| 20260503221517 | 68 | 234 | 13.0 | 21.0 | 0.00 | 0.00 | 0.00 | 40 | 1008.8 |
| 20260503220009 | 68 | 246 | 13.0 | 25.0 | 0.00 | 0.00 | 0.00 | 41 | 1008.9 |
| 20260503214511 | 68 | 229 | 10.0 | 23.0 | 0.00 | 0.00 | 0.00 | 40 | 1009.1 |
| 20260503213005 | 67 | 196 | 11.0 | 25.0 | 0.00 | 0.00 | 0.00 | 40 | 1009.3 |
| 20260503211504 | 67 | 253 | 14.0 | 28.0 | 0.00 | 0.00 | 0.00 | 40 | 1009.5 |
| 20260503210002 | 66 | 257 | 18.0 | 31.0 | 0.00 | 0.00 | 0.00 | 40 | 1009.8 |
| 20260503204600 | 65 | 207 | 15.0 | 34.0 | 0.00 | 0.00 | 0.00 | 43 | 1009.7 |
| 20260503203058 | 64 | 226 | 11.0 | 30.0 | 0.00 | 0.00 | 0.00 | 46 | 1010.3 |
| 20260503201554 | 64 | 246 | 15.0 | 28.0 | 0.00 | 0.00 | 0.00 | 46 | 1010.7 |
| 20260503200056 | 64 | 248 | 15.0 | 26.0 | 0.00 | 0.00 | 0.00 | 44 | 1011.1 |
| 20260503194558 | 63 | 144 | 13.0 | 24.0 | 0.00 | 0.00 | 0.00 | 42 | 1011.4 |
| 20260503193050 | 63 | 234 | 11.0 | 31.0 | 0.00 | 0.00 | 0.00 | 43 | 1011.7 |
| 20260503191553 | 62 | 173 | 10.0 | 25.0 | 0.00 | 0.00 | 0.00 | 42 | 1011.6 |
| 20260503190045 | 62 | 263 | 12.0 | 26.0 | 0.00 | 0.00 | 0.00 | 42 | 1011.5 |
| 20260503184544 | 61 | 189 | 16.0 | 31.0 | 0.00 | 0.00 | 0.00 | 45 | 1011.7 |
| 20260503183042 | 61 | 178 | 15.0 | 25.0 | 0.00 | 0.00 | 0.00 | 46 | 1012.1 |
| 20260503181542 | 61 | 192 | 13.0 | 29.0 | 0.00 | 0.00 | 0.00 | 47 | 1012.2 |
| 20260503180041 | 60 | 180 | 16.0 | 29.0 | 0.00 | 0.00 | 0.00 | 49 | 1012.4 |
| 20260503174534 | 58 | 254 | 13.0 | 32.0 | 0.00 | 0.00 | 0.00 | 54 | 1013.0 |
| 20260503173032 | 56 | 227 | 9.0 | 29.0 | 0.00 | 0.00 | 0.00 | 57 | 1013.4 |
| 20260503171528 | 55 | 247 | 13.0 | 29.0 | 0.00 | 0.00 | 0.00 | 59 | 1014.0 |
| 20260503120132 | 50 | 211 | 11.0 | 19.0 | 0.00 | 0.00 | 0.00 | 54 | 1016.4 |
| 20260503081542 | 50 | 250 | 7.0 | 14.0 | 0.00 | 0.00 | 0.00 | 48 | 1017.4 |
| 20260503071550 | 48 | 237 | 7.0 | 11.0 | 0.00 | 0.00 | 0.00 | 51 | 1017.6 |
| 20260503054521 | 46 | 250 | 2.0 | 6.0 | 0.00 | 0.00 | 0.00 | 59 | 1018.5 |
| 20260503053020 | 46 | 214 | 2.0 | 5.0 | 0.00 | 0.00 | 0.00 | 58 | 1018.6 |
| 20260503051514 | 46 | 219 | 2.0 | 7.0 | 0.00 | 0.00 | 0.00 | 58 | 1018.7 |
| 20260503050021 | 47 | 229 | 4.0 | 10.0 | 0.00 | 0.00 | 0.00 | 57 | 1018.7 |
| 20260503044509 | 47 | 212 | 4.0 | 8.0 | 0.00 | 0.00 | 0.00 | 57 | 1019.0 |
| 20260503043008 | 47 | 223 | 3.0 | 7.0 | 0.00 | 0.00 | 0.00 | 58 | 1018.9 |
| 20260503041507 | 46 | 234 | 4.0 | 7.0 | 0.00 | 0.00 | 0.00 | 60 | 1019.1 |
| 20260503040006 | 46 | 235 | 4.0 | 7.0 | 0.00 | 0.00 | 0.00 | 63 | 1019.1 |
| 20260503034504 | 44 | 223 | 3.0 | 5.0 | 0.00 | 0.00 | 0.00 | 68 | 1019.3 |
| 20260503033004 | 44 | 210 | 1.0 | 5.0 | 0.00 | 0.00 | 0.00 | 73 | 1019.4 |
| 20260503031503 | 44 | 198 | 1.0 | 5.0 | 0.00 | 0.00 | 0.00 | 75 | 1019.5 |
| 20260503030003 | 43 | 198 | 2.0 | 4.0 | 0.00 | 0.00 | 0.00 | 77 | 1019.5 |
| 20260503024502 | 43 | 182 | 1.0 | 3.0 | 0.00 | 0.00 | 0.00 | 80 | 1019.6 |
| 20260503023002 | 44 | 190 | 3.0 | 4.0 | 0.00 | 0.00 | 0.00 | 79 | 1019.7 |
| 20260503021601 | 44 | 182 | 2.0 | 6.0 | 0.00 | 0.00 | 0.00 | 78 | 1019.6 |